[ x ]
ituDewa

Jackpot

Texas Poker Multi Jackpot System

Kini Telah hadir Jackpot SUPER ROYAL FLUSH

Kini Telah hadir Jackpot 2000 (khusus table VIP keatas).

Ikutilah global jackpot yang tersedia di system kami, dengan system jackpot terbaru dan pertama di indonesia, anda dapat membeli jackpot dengan harga 100 rupiah saja dan menangkan hadiahnya hingga puluhan juta rupiah.

Jackpot bukanlah suatu keharusan untuk dibeli, namun kami memberikan suatu fitur tambahan untuk member tercinta dari www.itudewa.info.

Terdapat tiga pilihan harga jackpot yang bisa anda beli yaitu :100,500,1000 dan 2000(khusus table VIP Keatas) rupiah.

Hadiah dari Multi jackpot system www.itudewa.info

  1. full house x 10 harga jackpot yang anda beli.
      (contoh:anda membeli 1000 maka:1000 X10 = 10.000)
  2. four of kind x 250 harga jackpot yang anda beli
      (contoh:anda membeli 1000 maka:1000 X250 = 250.000)
  3. Straight flush x 1200
      (contoh:anda membeli 1000 maka:1000 X1200 = 1.200.000)
  4. Royal flush x 10000 harga jackpot yang anda beli
      (contoh:anda membeli 1000 maka:1000 X10000 = 10.000.000)
  5. SUPER ROYAL FLUSH x 30000 harga jackpot yang anda beli
      (contoh:anda membeli 1000 maka:1000 X30000 = 30.000.000)

Kondisi kartu

  1. full house adalah kondisi kartu dimana kartu anda dan kartu tengah dengan total 7 kartu bisa mendapatkan nilai 5 kartu dengan kombinasi 1 tris(three of kind) dan 1 pair, contoh 3 kartu 10 dan 2 kartu 5
  2. Four of kind adalah kondisi kartu dimana kartu anda dan kartu tengah dengan total 7 kartu bisa mendapatkan nilai 5 kartu dengan kombinasi 4 kartu yang sama jumlah dan 1 kartu apapun juga contoh anda mendapatkan 4 buah kartu angka 3 dan 1 kartu apapun.
  3. Staright flush adalah kondisi kartu dimana kartu anda dan kartu tengah dengan total 7 kartu bisa mendapatkan nilai 5 kartu dengan kombinasi seri / staright dengan kembang yang sama contoh : urutan kartu dari angka 5, 6, 7, 8 , 9 10 dengan kembang yg sama misalnya as hati
  4. Royal flush adalah kondisi kartu dimana kartu anda dan kartu tengah dengan total 7 kartu bisa mendapatkan nilai 5 kartu dengan kombinasi seri / staright dengan kembang yang sama tetapi kartu tersebut haruslah dimulai dari 10. contoh 10, Queen, Jack, King dan aces dengan kembang yang sama
  5. Super Royal flush adalah kondisi kartu dimana Kedua kartu anda digabung dengan 3 kartu pertama meja haruslah royal flush. contoh kartu anda 10,Queen kembang sama dan 3 kartu pertama meja adalah Jack, King dan aces dengan kembang yang sama

Demikian adalah penjelasan dari Multi Jackpot www.itudewa.info terima kasih dan selamat bermain salam hoki dari kami

Texas Poker Jackpot Winner

TOP SUPER ROYAL FLUSH
No.TanggalNamaPriceWin
117/08 20:35B24C7AF2Super Royal flush1,500,000
217/08 20:06ANAASuper Royal flush15,000,000
317/08 17:55BOSANG1Super Royal flush30,000,000
417/08 04:30HERWIJSuper Royal flush6,000,000
517/08 03:40ARZIKI30Super Royal flush6,000,000
TOP ROYAL FLUSH
No.TanggalNamaPriceWin
117/08 21:53ALDI81Royal flush2,000,000
217/08 21:49PINO03Royal flush2,000,000
317/08 21:47S7VOZPLHIRRoyal flush2,000,000
417/08 21:37LK4DM4NJ474Royal flush2,000,000
517/08 21:34BALTO90Royal flush2,000,000
TOP STRAIGHT FLUSH
No.TanggalNamaPriceWin
117/08 22:03ADIB1212Straight Flush2,400,000
217/08 22:01ADELIA22Straight Flush120,000
317/08 22:01DWBTD4R347Straight Flush2,400,000
417/08 21:59C34CHOLBS1Straight Flush600,000
517/08 21:57B1B50B09Straight Flush120,000
LATEST JACKPOT
No.TanggalNamaPriceWin
117/08 22:04KANTUK212Full House10,000
217/08 22:04B4JIN6Full House2,000
317/08 22:04DRRYAN13Full House2,000
417/08 22:04W1D2345Full House5,000
517/08 22:04DSUK7YQA2CFull House10,000
617/08 22:04MASHA987Four Of A Kind250,000
717/08 22:04COPSA5AULRFull House2,000
817/08 22:04G4L1_999Full House5,000
917/08 22:04RAH43Full House2,000
1017/08 22:04F6B2EF85Full House10,000
1117/08 22:044RISANDIFour Of A Kind50,000
1217/08 22:04LELY10Full House10,000
1317/08 22:04WORY27Full House10,000
1417/08 22:03ANL2U7TVBSFull House5,000
1517/08 22:03LATABIFull House2,000
1617/08 22:03BOTINZBEEFour Of A Kind500,000
1717/08 22:03PT4DDIAZFRAN77Full House2,000
1817/08 22:03KECE86Full House5,000
1917/08 22:03BOYKLEPFull House20,000
2017/08 22:03BLAGU33Full House20,000
2117/08 22:03NONGKO2Full House2,000
2217/08 22:03MBAHSPUHFull House2,000
2317/08 22:03HADIWAH91Four Of A Kind50,000
2417/08 22:03KAIMONGGEFull House1,000
2517/08 22:03NAGUR02Full House10,000
2617/08 22:03ITENK68Full House10,000
2717/08 22:03ALIONG1010Full House2,000
2817/08 22:03SKP866Full House5,000
2917/08 22:03ALFI_99Full House2,000
3017/08 22:03TEMPOS78Full House2,000
3117/08 22:03N4G401Full House20,000
3217/08 22:03PTZEBW20KEFull House20,000
3317/08 22:03ADIB1212Straight Flush2,400,000
3417/08 22:03UP1LAHOKFull House2,000
3517/08 22:03PHEMENANGFull House1,000
3617/08 22:03TIG3R88Full House1,000
3717/08 22:03SM4DKANCELFull House2,000
3817/08 22:03MONZIRIFull House2,000
3917/08 22:03XRCAMC1DXDFull House1,000
4017/08 22:03BANGIIS77Full House1,000
4117/08 22:03XXBEJEXXFour Of A Kind250,000
4217/08 22:03RIFAEFull House1,000
4317/08 22:03LIPOLIPFull House5,000
4417/08 22:03SHAREEN1STFull House2,000
4517/08 22:03PUTIH0026Full House5,000
4617/08 22:03ULAPFull House10,000
4717/08 22:03T4DAMBALLE77Full House5,000
4817/08 22:03HERIKASEPFull House5,000
4917/08 22:03CLASSIC11Full House2,000
5017/08 22:03KOETIL04Full House2,000

Domino Multi Jackpot System

Ikutilah global jackpot yang tersedia di system kami, dengan system jackpot terbaru dan pertama di indonesia, anda dapat membeli jackpot dengan harga 100 rupiah saja dan menangkan hadiahnya hingga puluhan juta rupiah.

Jackpot bukanlah suatu keharusan untuk dibeli, namun kami memberikan suatu fitur tambahan untuk member tercinta dari www.itudewa.info.

Terdapat tiga pilihan harga jackpot yang bisa anda beli yaitu :100,500 dan 1000 rupiah.

Hadiah dari Multi jackpot system www.itudewa.info

  1. Murni Kecil x 50 harga jackpot yang anda beli.
      (contoh:anda membeli 1000 maka:1000 X 50 = 50.000)
  2. Murni Besar x 50 harga jackpot yang anda beli
      (contoh:anda membeli 1000 maka:1000 X 50 = 50.000)
  3. BALAK x 100 harga jackpot yang anda beli
      (contoh:anda membeli 1000 maka:1000 X 100 = 100.000)
  4. ENAM DEWA x 6666 harga jackpot yang anda beli
      (contoh:anda membeli 1000 maka:1000 X 6666 = 6.666.000)

Demikian adalah penjelasan dari Multi Jackpot www.itudewa.info terima kasih dan selamat bermain salam hoki dari kami

Domino Jackpot Winner

TOP ENAM DEWA
No.TanggalNamaPriceWin
117/08 21:35TURIAK17murni enam666,600
217/08 21:00JPWINNER87murni enam6,666,000
317/08 20:18KETUTJULI0murni enam6,666,000
417/08 19:56MRGALAU3murni enam6,666,000
517/08 19:42IPOEL202murni enam6,666,000
TOP BALAK
No.TanggalNamaPriceWin
117/08 22:02DANAR14balak50,000
217/08 22:02KMPLNG07balak10,000
317/08 22:01RENGIS97balak50,000
417/08 22:00BARRE55balak100,000
517/08 21:59KUDAEDAN88balak100,000
LATEST JACKPOT
No.TanggalNamaPriceWin
117/08 22:02ALPENLIBELmurni kecil50,000
217/08 22:02BAJI55murni besar25,000
317/08 22:02DANAR14balak50,000
417/08 22:02KMPLNG07balak10,000
517/08 22:01RENGIS97balak50,000
617/08 22:01A64H_666murni kecil50,000
717/08 22:01DCOSTA89murni besar50,000
817/08 22:00BARRE55balak100,000
917/08 22:00LABALAmurni besar50,000
1017/08 22:00NANE_88murni kecil25,000
1117/08 22:00RAFBIL31murni besar50,000
1217/08 21:59MDRGEDAmurni kecil50,000
1317/08 21:59T4DDEWA99murni besar50,000
1417/08 21:59PI4DLOPAL000murni besar25,000
1517/08 21:59THEWIN78lucky99200,000
1617/08 21:59KUDAEDAN88balak100,000
1717/08 21:58TIURTIUR88murni kecil25,000
1817/08 21:58CEPLES46balak100,000
1917/08 21:58JETTDARAT1balak100,000
2017/08 21:58MAMEN_AHbalak50,000
2117/08 21:58BXDNLEOQ9Jmurni besar50,000
2217/08 21:57FURDIATmurni besar50,000
2317/08 21:57VIRGINJOlucky9950,000
2417/08 21:57BRI_INAmurni besar25,000
2517/08 21:57BUKIT30murni kecil50,000
2617/08 21:56LUEPOEmurni besar5,000
2717/08 21:56ZOO69murni besar50,000
2817/08 21:56MERON79lucky9950,000
2917/08 21:56IIT6470balak10,000
3017/08 21:56JAYAA6balak10,000
3117/08 21:56HJCIOTmurni kecil50,000
3217/08 21:55NBOIPHTLO2murni kecil50,000
3317/08 21:55RUDY120murni kecil5,000
3417/08 21:55JI3NK94balak50,000
3517/08 21:54IW4N98murni besar5,000
3617/08 21:54BEL1NKmurni besar50,000
3717/08 21:54MBAHIDIN01lucky9910,000
3817/08 21:54DA2NAR4Abalak50,000
3917/08 21:54BUDOL90murni besar25,000
4017/08 21:54L1WANmurni besar5,000
4117/08 21:53SER4N9_601lucky9925,000
4217/08 21:53PINDANKSlucky9950,000
4317/08 21:53MEGGAHARTAmurni besar25,000
4417/08 21:53KINGPAPUAmurni kecil50,000
4517/08 21:52JZ0QUX1YJBmurni besar25,000
4617/08 21:52NADI032murni besar50,000
4717/08 21:52BE75EC23lucky9910,000
4817/08 21:51BEL1NKmurni kecil50,000
4917/08 21:51JETTDARAT1murni kecil50,000
5017/08 21:51JINJUNKmurni besar50,000

Ceme Multi Jackpot System

Jackpot dilihat dari gabungan kartu pemain dengan kartu bandar. Bandar harus membeli jackpot sebanyak jumlah player yang sedang duduk. Sebagai contoh bila terdapat 3 pemain duduk bermain, dan bandar memutuskan untuk membeli jackpot Rp 1.000, maka pada periode tersebut bandar akan membeli jackpot sebanyak 3xRp1.000 = Rp3.000.

Jackpot bukanlah suatu keharusan untuk dibeli, namun kami memberikan suatu fitur tambahan untuk member tercinta dari www.itudewa.info.

Terdapat tiga pilihan harga jackpot yang bisa anda beli yaitu :100,500 dan 1000 rupiah.

Hadiah dari Multi jackpot system www.itudewa.info

  1. Murni Kecil x 50 harga jackpot yang anda beli.
      (contoh:anda membeli 1000 maka:1000 X 50 = 50.000)
  2. Murni Besar x 50 harga jackpot yang anda beli
      (contoh:anda membeli 1000 maka:1000 X 50 = 50.000)
  3. BALAK x 200 harga jackpot yang anda beli
      (contoh:anda membeli 1000 maka:1000 X 200 = 200.000)
  4. ENAM DEWA x 6666 harga jackpot yang anda beli
      (contoh:anda membeli 1000 maka:1000 X 6666 = 6.666.000)

Demikian adalah penjelasan dari Multi Jackpot www.itudewa.info terima kasih dan selamat bermain salam hoki dari kami

Ceme Jackpot Winner

TOP ENAM DEWA
No.TanggalNamaPriceWin
117/08 21:51RAHMAT508murni enam6,666,000
217/08 21:51CEKERKODIRmurni enam3,333,000
317/08 21:38B94ON007959murni enam6,666,000
417/08 21:14DU2NTOEMmurni enam6,666,000
517/08 21:14RUDOLF777murni enam6,666,000
TOP BALAK
No.TanggalNamaPriceWin
117/08 22:03JOKO234balak200,000
217/08 22:03JIN777HOKIbalak200,000
317/08 22:03GAYALUHbalak20,000
417/08 22:02L3G3NDA2balak200,000
517/08 22:02TADUN932balak200,000
LATEST JACKPOT
No.TanggalNamaPriceWin
117/08 22:04SUWE14murni kecil50,000
217/08 22:04KODOKIJO22murni besar50,000
317/08 22:04SEQUIS22murni besar50,000
417/08 22:04KAFKAmurni kecil50,000
517/08 22:03JOKO234balak200,000
617/08 22:03EMON11111murni kecil25,000
717/08 22:03MAXIBOISmurni kecil50,000
817/08 22:03JIN777HOKIbalak200,000
917/08 22:03GAYALUHbalak20,000
1017/08 22:03IDNG8612murni besar25,000
1117/08 22:03PELIMmurni kecil50,000
1217/08 22:03MANGJIUNGmurni besar50,000
1317/08 22:03HOSEA31murni besar50,000
1417/08 22:03EMPLENGmurni besar25,000
1517/08 22:03UTADOELmurni besar50,000
1617/08 22:03FITKARQQ99murni kecil50,000
1717/08 22:03CEMI07murni kecil50,000
1817/08 22:03SAOSBOTOLmurni besar5,000
1917/08 22:03KAWULO99murni besar50,000
2017/08 22:03KAWULO99murni besar50,000
2117/08 22:03AN0907murni besar50,000
2217/08 22:03LIESABONEmurni besar50,000
2317/08 22:03B01IYO127murni kecil25,000
2417/08 22:03BUNCISmurni besar5,000
2517/08 22:03PINTER123murni besar5,000
2617/08 22:02L3G3NDA2balak200,000
2717/08 22:02JOHNWNS23murni besar50,000
2817/08 22:02BILINGmurni besar5,000
2917/08 22:02QIVESTmurni besar5,000
3017/08 22:02PUNEL88murni besar50,000
3117/08 22:02EMON11111murni besar25,000
3217/08 22:02DOI300murni besar25,000
3317/08 22:02B0S1234murni besar50,000
3417/08 22:02AGYAKU96murni besar50,000
3517/08 22:02SAYGON99murni besar50,000
3617/08 22:02FHNDImurni besar50,000
3717/08 22:02PASRAHH7murni kecil25,000
3817/08 22:02TADUN932balak200,000
3917/08 22:02RENCUAHmurni besar25,000
4017/08 22:02OCTADARmurni besar5,000
4117/08 22:01HOKI099balak200,000
4217/08 22:01NTUNK0013balak200,000
4317/08 22:01CANGAWING8murni besar50,000
4417/08 22:01TIREX8888murni besar25,000
4517/08 22:01OBEYmurni besar5,000
4617/08 22:01HUSNI08murni kecil5,000
4717/08 22:01AGUNGVIBbalak20,000
4817/08 22:01B3RK4H13balak100,000
4917/08 22:01IDUTEAbalak200,000
5017/08 22:01JEPARA21balak200,000